GFSFLT2_700_temp_087.txt.gz
Temp
9 10 9 9 9 9 10 9 9 8 8 7 7 7 7 6 6 6 6 5 4 3 4 4 4 4 5 4 4 5 5 6
9 9 9 9 9 9 9 9 9 8 8 7 7 7 6 6 6 5 5 5 3 4 4 3 4 4 4 4 4 5 4 4
9 9 9 9 8 8 9 9 8 8 8 7 7 6 6 6 5 5 5 5 4 4 4 3 3 4 3 4 4 4 4 4
9 9 8 8 8 8 8 9 8 8 8 8 7 7 6 5 5 5 4 4 4 3 4 3 3 4 3 3 4 4 4 4
9 8 8 8 8 8 8 8 8 8 8 8 8 7 6 5 5 4 4 4 4 4 3 3 3 3 3 3 3 4 4 4
9 8 8 8 8 8 8 8 8 7 7 7 8 7 6 5 5 4 4 4 4 4 3 2 3 2 3 3 3 4 4 4
8 8 8 8 8 8 8 8 8 7 7 7 7 7 6 6 5 4 4 4 4 4 4 3 3 3 2 3 3 3 4 4
6 7 7 7 7 8 7 8 7 7 7 7 7 7 6 5 5 5 4 4 3 3 3 3 3 2 2 2 3 3 4 4
6 6 6 7 7 7 7 7 7 7 7 7 7 7 6 5 5 5 4 3 3 3 3 3 3 2 3 2 2 3 3 4
6 6 6 7 7 7 7 7 7 7 6 6 6 6 6 5 5 4 4 3 3 2 2 2 3 1 2 2 1 2 3 4
6 7 7 7 7 7 7 7 7 6 6 6 6 6 5 5 4 4 4 3 3 2 2 2 2 2 2 1 1 2 3 3
6 7 7 6 6 7 7 7 7 6 6 6 6 6 5 5 4 3 3 3 3 3 2 2 2 2 2 1 1 0 3 3
7 7 7 7 7 7 7 7 7 6 6 6 6 6 5 4 4 3 3 3 2 2 2 2 2 2 1 1 1 1 1 3
7 7 7 7 7 7 7 7 7 6 6 5 5 5 5 4 3 3 3 3 3 3 2 2 2 1 1 1 1 0 1 2
7 7 7 7 7 7 7 7 7 6 6 5 5 6 5 4 3 3 3 2 3 3 2 2 1 1 0 1 1 1 2 2
7 7 7 7 7 7 7 7 7 6 6 5 6 6 5 5 4 3 2 2 3 2 2 2 2 1 1 1 1 0 2 2
7 7 7 7 7 7 7 7 7 6 6 6 6 5 4 4 3 3 3 2 1 2 2 1 1 1 1 1 -0 -1 -1 0
7 7 7 7 7 7 7 7 7 6 6 5 6 5 4 3 3 3 2 1 1 1 2 1 2 1 0 0 -0 -1 -0 0
7 7 7 7 7 7 7 7 6 6 5 6 6 5 4 3 3 2 2 2 1 2 1 2 1 1 1 0 0 -0 -2 -0
6 6 7 6 6 7 7 7 6 6 6 6 6 5 4 3 2 2 1 1 1 1 1 1 1 1 1 0 -0 0 -1 0

GFSFLT2_700_temp_093.txt.gz
Temp
10 10 9 9 9 9 9 10 10 10 10 9 9 9 8 8 7 7 7 6 6 5 5 4 4 4 3 3 4 5 5 5
10 10 10 9 9 9 9 9 9 9 9 9 9 9 8 7 7 7 6 6 5 5 4 5 4 4 3 3 2 5 5 5
10 10 9 9 9 9 9 9 9 9 9 8 9 9 8 7 7 7 6 6 5 5 4 4 4 4 3 2 2 4 4 4
9 9 9 9 9 8 8 8 8 9 9 8 8 8 8 7 7 7 6 5 5 4 4 4 4 4 3 2 2 3 4 4
8 8 8 8 8 8 8 8 8 8 8 8 8 8 7 7 7 7 6 5 5 4 4 4 4 4 3 2 2 3 4 4
7 8 8 8 8 8 7 7 8 8 8 8 7 7 7 7 7 7 6 5 5 4 4 4 4 3 2 2 2 2 4 4
7 7 7 8 8 7 7 7 7 7 8 7 7 7 7 7 7 7 6 5 5 4 4 3 3 3 1 1 2 2 3 3
6 7 7 7 7 7 7 7 7 7 7 7 7 7 7 6 6 7 6 5 4 4 3 3 3 2 1 1 2 2 3 3
6 6 6 7 7 6 6 6 6 7 7 7 7 6 6 6 6 6 6 5 4 4 3 3 3 2 1 1 2 2 2 2
6 6 6 6 6 7 6 5 6 7 7 7 7 6 6 6 6 6 5 5 4 4 3 3 3 2 2 1 2 2 2 2
6 6 6 6 6 6 6 5 5 6 7 7 7 6 6 6 6 6 5 5 4 4 3 3 3 2 2 2 2 2 1 2
6 6 6 6 6 6 6 5 5 5 6 6 6 6 6 6 5 5 5 5 4 4 3 3 3 3 2 2 2 2 2 2
6 6 6 6 5 6 6 6 5 6 6 6 6 6 6 6 5 5 5 5 4 3 3 3 3 2 2 2 2 2 2 2
6 6 5 6 6 6 6 6 6 5 5 6 6 6 6 6 5 5 5 4 4 3 3 3 3 2 2 2 2 2 2 2
6 6 6 6 6 6 6 6 5 3 5 6 6 6 6 6 5 5 5 4 3 3 3 3 3 2 2 2 2 2 2 1
6 6 6 6 6 6 6 6 6 5 6 6 6 6 6 6 5 5 5 3 3 3 3 3 2 2 2 2 1 1 1 1
6 6 6 6 6 6 6 6 6 5 5 5 6 5 6 6 5 5 5 3 3 3 3 2 2 2 2 2 2 1 2 1
6 6 6 6 6 6 6 6 6 5 5 6 5 5 6 6 5 5 5 4 3 3 3 2 2 2 1 1 2 1 2 2
5 6 6 7 6 7 7 6 6 5 5 6 6 6 6 5 5 5 4 4 3 3 3 2 2 2 1 2 2 2 1 0
5 6 6 7 7 6 5 6 5 5 5 6 5 6 6 6 6 5 4 3 3 3 2 2 2 2 1 2 2 2 1 0

GFSFLT2_700_temp_099.txt.gz
Temp
10 10 10 10 10 10 9 9 9 9 9 9 9 9 9 9 8 7 7 6 6 6 6 5 5 5 5 5 5 4 5 3
9 9 10 10 9 9 9 9 9 9 9 9 9 9 9 9 8 8 7 6 6 6 5 5 5 5 4 4 4 3 4 2
9 9 9 9 9 9 9 9 9 9 9 9 9 9 9 8 8 8 7 6 6 5 5 5 5 4 4 4 5 3 4 3
9 9 9 9 9 9 9 9 9 8 9 9 9 9 8 8 8 7 7 6 6 5 5 5 5 5 4 4 4 3 4 3
8 9 8 8 8 8 8 8 8 8 8 8 8 8 8 8 8 7 7 7 6 5 5 5 4 4 4 4 3 4 4 3
7 7 7 8 8 8 8 8 8 8 8 8 8 8 8 8 8 7 7 7 6 5 5 4 4 4 3 3 3 3 3 2
6 6 7 7 7 7 7 7 7 7 7 7 7 8 8 7 7 7 7 7 6 5 5 4 4 3 3 3 3 3 3 2
6 6 5 7 6 6 6 7 7 7 7 7 7 7 7 7 7 7 7 6 6 6 5 4 4 3 3 3 3 4 3 2
6 6 6 6 6 5 6 6 6 6 6 6 6 7 7 7 7 7 6 6 6 6 5 4 4 3 3 3 3 4 3 2
6 6 6 6 6 5 5 6 6 6 5 6 6 6 6 6 7 6 6 6 6 6 5 4 3 3 3 3 3 3 3 2
4 5 5 6 6 6 6 5 5 5 5 6 6 6 6 6 6 6 6 6 6 6 5 4 3 2 2 3 3 3 2 1
4 4 4 5 5 6 6 6 5 5 5 6 6 5 6 6 6 6 6 6 5 6 5 5 3 2 2 2 2 3 2 1
4 4 4 4 5 5 6 6 6 6 6 6 6 5 5 6 6 6 6 6 5 5 5 5 4 2 1 1 2 2 2 1
4 4 4 4 5 5 5 6 6 6 5 5 6 6 6 5 5 5 5 5 5 5 5 5 4 2 2 2 1 2 1 2
3 3 4 4 5 5 5 5 5 5 5 6 6 5 5 5 5 5 5 5 5 5 4 5 4 3 3 2 2 2 2 2
3 3 3 4 5 5 5 5 5 5 5 5 6 5 4 4 4 4 4 5 5 4 4 4 4 3 2 2 1 2 2 2
3 3 4 4 4 5 5 5 5 5 5 5 5 4 4 5 4 2 3 4 4 4 4 4 3 3 2 3 2 2 2 2
2 3 4 4 5 5 5 5 6 5 5 5 5 4 4 4 3 3 4 4 4 4 4 4 3 2 2 3 2 3 2 2
2 3 4 5 5 5 5 6 6 5 5 5 5 5 4 3 3 4 4 4 4 4 4 4 2 2 2 2 3 2 2 2
3 3 4 4 5 5 5 5 6 6 5 5 5 4 4 3 4 4 4 4 4 4 4 3 3 2 2 2 2 2 2 2

GFSFLT2_700_temp_102.txt.gz
Temp
10 10 10 10 10 10 10 10 10 9 9 9 9 9 9 9 8 8 7 7 7 6 6 5 5 5 5 5 5 5 5 5
10 10 10 10 10 10 10 10 9 9 9 9 9 9 9 8 8 8 8 7 7 6 6 5 5 5 5 5 5 4 5 4
10 9 10 9 9 10 9 9 9 9 9 9 9 9 8 8 8 8 8 7 7 6 6 6 5 5 4 4 4 4 4 4
9 9 9 9 9 9 9 9 9 9 9 9 9 8 8 8 8 8 8 7 7 7 6 6 5 5 5 4 4 4 4 4
8 8 8 8 9 9 9 9 9 9 9 8 8 8 8 8 8 8 7 7 7 7 6 6 5 5 5 4 4 4 4 4
8 8 7 8 8 8 8 8 8 8 8 8 8 8 8 8 8 7 7 7 7 7 7 6 5 5 4 4 4 4 4 3
7 7 7 7 7 8 8 8 8 8 8 8 8 8 8 7 7 7 7 7 7 7 7 6 6 5 4 4 4 3 3 3
7 7 7 7 7 7 7 7 7 7 8 7 7 7 7 7 7 7 7 7 7 6 7 6 6 5 5 4 4 4 4 3
6 6 7 7 7 7 7 7 7 7 7 7 7 7 7 7 7 7 7 7 6 6 6 6 6 5 5 4 4 3 4 4
6 6 6 6 6 6 6 6 6 6 6 6 6 6 6 6 6 6 7 6 6 6 6 6 6 5 4 4 3 3 3 4
5 6 6 6 6 6 6 6 6 6 6 6 6 6 6 7 6 6 6 6 6 6 6 6 6 5 4 4 3 3 3 3
5 4 5 5 6 6 6 6 6 6 6 6 6 6 6 6 6 6 6 6 6 6 6 6 5 5 4 3 2 3 3 3
4 4 4 4 4 5 5 6 6 6 6 6 6 6 6 6 5 5 5 6 6 6 5 5 5 5 4 4 3 3 3 3
4 5 4 4 4 4 4 4 5 6 6 6 6 6 6 6 5 5 5 5 5 5 5 5 5 5 4 2 2 2 2 2
4 5 5 4 4 4 4 4 4 5 5 6 6 6 5 6 5 4 5 5 5 5 5 5 5 4 4 3 2 2 2 2
4 4 4 3 3 3 4 4 4 5 5 5 6 5 5 5 5 5 4 5 5 5 4 4 4 4 4 4 2 2 2 2
4 3 3 3 3 3 3 4 4 4 5 5 5 5 5 5 5 4 3 3 4 5 4 4 4 4 4 4 2 2 2 1
2 2 2 1 3 3 3 4 4 4 5 5 5 5 5 5 4 4 4 4 4 3 4 4 3 3 4 3 1 2 2 2
2 2 2 2 3 3 4 4 4 4 5 5 5 5 4 5 4 5 4 3 4 4 4 4 3 3 4 3 2 1 2 1
1 2 3 3 3 4 4 4 5 5 5 5 5 5 5 5 4 3 3 2 2 4 4 4 3 3 3 2 2 2 2 2

GFSFLT2_700_temp_105.txt.gz
Temp
11 11 11 11 11 10 10 10 10 10 10 9 9 9 9 8 8 8 7 7 7 7 7 6 6 6 6 5 5 5 5 4
10 11 11 11 11 10 10 10 10 10 9 9 9 9 9 8 8 8 8 7 7 6 7 6 6 6 5 5 5 5 5 4
10 10 10 10 10 10 10 10 10 10 9 9 9 9 9 9 8 8 8 8 7 6 6 6 6 6 5 5 5 5 5 5
10 10 10 10 10 10 9 10 10 9 9 9 9 9 8 8 8 8 8 8 8 7 7 6 6 6 6 5 5 5 5 5
9 9 10 9 9 9 9 9 9 9 9 9 9 9 8 8 8 8 8 8 7 8 7 7 6 6 6 5 5 4 5 4
7 8 9 9 8 8 8 8 9 9 9 9 9 8 8 8 8 8 8 8 7 7 7 7 6 6 6 5 5 5 4 4
7 7 8 8 7 8 8 8 8 8 8 8 8 8 8 8 8 7 8 7 8 7 7 7 6 6 5 5 5 5 4 5
7 6 7 7 7 7 7 8 8 8 8 8 8 8 8 7 7 7 7 7 7 7 6 6 6 6 5 5 5 5 5 4
7 7 6 6 7 7 7 7 7 7 8 8 8 7 7 7 7 7 7 6 7 7 7 6 6 6 6 5 5 5 5 4
6 6 6 6 6 6 7 7 7 7 7 7 7 7 7 7 7 7 7 6 6 6 6 6 6 6 6 5 5 5 5 4
5 6 6 6 7 6 7 6 6 6 6 7 7 7 7 7 6 7 6 6 6 6 6 6 6 6 5 5 5 5 5 4
5 5 6 6 7 7 7 7 7 6 6 6 6 7 6 6 6 6 7 6 6 6 6 6 6 6 6 6 5 4 5 4
5 5 5 5 6 6 6 7 6 7 6 6 6 6 6 6 6 6 7 6 6 5 6 6 6 6 5 5 5 5 4 4
4 5 5 5 5 6 6 6 6 5 5 6 6 6 6 6 6 6 6 6 5 5 6 6 6 5 5 5 5 5 5 4
4 4 5 5 5 5 5 5 4 4 4 5 5 6 5 4 5 4 6 6 5 4 5 6 5 5 5 5 5 5 5 4
4 5 5 4 4 5 5 5 4 4 3 2 5 5 5 5 5 5 6 6 5 4 5 5 5 5 5 5 4 4 4 4
3 4 4 4 4 4 4 4 3 3 3 2 4 5 5 5 5 5 5 5 5 4 3 4 5 5 5 4 4 4 4 3
2 3 3 3 3 2 2 3 3 3 3 3 3 4 5 5 5 5 5 5 4 5 3 2 3 4 5 5 4 4 4 3
2 3 2 3 2 2 2 3 3 3 3 3 2 4 5 5 5 5 4 4 4 5 4 2 2 4 4 4 4 4 3 3
2 2 2 2 2 3 3 4 4 4 3 3 3 3 5 5 4 4 4 4 4 3 3 3 3 3 5 5 4 4 3 3

GFSFLT2_700_temp_111.txt.gz
Temp
11 11 11 11 11 11 11 10 10 10 10 10 10 9 9 9 9 9 9 8 8 8 8 7 7 7 7 7 6 5 5 5
10 11 11 11 11 11 10 10 10 10 10 9 9 9 9 9 9 9 9 9 8 8 8 8 7 7 7 7 6 6 5 5
10 10 11 10 11 10 10 10 10 10 10 10 9 9 9 9 9 9 9 9 8 8 8 8 8 8 7 7 7 6 6 5
9 10 10 10 10 10 10 10 9 9 9 9 9 9 9 9 9 9 8 8 8 8 8 8 8 8 7 7 7 6 6 5
8 9 10 10 10 10 10 10 9 9 9 9 9 9 9 9 9 9 8 8 8 8 8 8 8 8 8 7 7 7 6 5
6 8 9 9 9 10 9 9 9 9 9 9 9 9 9 9 9 9 8 8 8 8 8 8 8 8 8 7 7 6 6 6
6 7 8 9 9 9 9 9 8 8 8 8 8 8 9 9 9 8 8 8 8 8 8 8 8 8 7 8 7 7 6 6
5 5 7 8 8 8 8 8 8 8 8 8 8 8 8 8 8 8 8 8 8 8 8 8 7 7 7 7 7 7 6 6
5 5 5 7 7 8 7 7 7 7 7 8 7 7 8 8 8 8 8 8 8 8 8 7 7 7 7 7 7 7 6 6
5 5 5 5 5 6 6 6 6 6 7 7 7 7 7 8 8 8 8 8 8 8 8 7 7 7 7 7 7 6 6 6
5 5 6 5 5 5 6 6 6 6 6 6 6 6 7 7 7 7 7 7 7 7 7 7 7 7 7 7 6 6 6 6
4 5 5 5 5 5 5 5 6 6 6 6 6 6 6 6 6 7 7 7 7 7 7 7 7 7 6 6 6 6 6 6
3 4 4 4 5 5 5 5 5 5 6 6 6 7 6 6 7 6 5 6 6 6 6 6 6 6 5 6 6 6 6 6
3 3 3 3 4 5 6 6 6 6 6 6 6 6 5 6 7 7 6 6 5 5 5 5 5 5 5 5 5 6 6 6
3 3 3 3 4 4 5 5 6 7 7 7 7 6 6 6 5 5 5 6 5 5 5 4 3 2 3 4 4 5 5 5
2 2 3 3 3 4 4 5 5 6 6 7 7 7 7 6 5 4 4 5 4 4 4 4 3 3 2 2 4 4 5 5
2 2 3 3 4 4 4 5 5 6 6 6 6 6 6 5 5 4 4 4 3 3 3 3 3 4 3 2 3 4 4 5
1 2 2 3 3 3 4 5 5 6 6 6 6 6 6 5 4 3 3 3 3 3 3 3 3 3 3 4 4 4 4 5
1 1 1 2 2 3 3 4 4 5 5 5 5 5 4 5 4 3 3 3 3 1 2 2 3 2 3 3 3 4 4 3
1 1 1 1 2 2 2 3 3 4 5 4 4 4 5 4 4 3 3 2 2 1 2 2 3 3 3 2 3 3 3 3

GFSFLT2_700_temp_114.txt.gz
Temp
11 11 11 11 11 11 11 11 10 10 10 10 10 9 9 9 9 9 9 9 9 8 8 8 7 7 7 6 6 5 5 6
10 10 11 11 11 11 10 10 10 10 10 10 10 9 9 9 9 9 9 9 9 8 8 8 8 7 7 6 6 5 5 5
9 10 10 10 11 10 10 10 10 10 9 10 9 9 9 9 9 9 9 9 9 9 8 8 8 8 7 7 6 5 5 5
8 9 9 10 10 10 10 10 10 10 9 9 9 9 9 9 9 9 9 9 9 9 8 8 8 8 7 7 6 6 5 4
8 7 9 9 10 10 10 10 9 9 9 9 9 9 9 9 9 9 9 9 8 8 8 8 8 8 8 7 7 6 6 5
7 8 7 9 9 9 9 9 9 9 9 9 8 8 9 9 9 9 9 9 8 8 8 8 8 8 8 8 7 7 6 5
6 7 7 7 9 9 9 9 9 9 8 8 8 8 8 8 8 8 8 8 8 8 8 8 8 8 7 7 7 7 7 6
6 6 7 7 6 7 8 7 8 8 8 8 8 8 8 8 8 8 8 8 8 8 8 8 8 8 7 7 7 7 7 6
5 5 5 6 6 6 6 6 7 7 8 7 7 7 7 8 8 8 8 8 7 8 8 8 8 8 8 7 7 7 7 6
5 5 5 5 5 6 6 6 6 6 7 7 7 8 7 7 7 7 6 7 7 7 7 7 7 7 7 7 7 7 7 6
5 5 5 5 5 5 5 5 5 5 6 6 6 6 6 7 6 6 5 4 7 7 7 7 7 7 7 7 7 7 7 7
5 5 5 5 4 4 4 5 5 5 5 5 5 6 6 6 7 6 6 5 6 6 7 7 7 6 6 6 6 6 6 7
5 4 4 4 5 4 4 4 4 4 4 5 5 6 6 6 6 6 7 6 6 6 5 6 6 6 6 5 6 6 6 6
4 4 4 4 4 4 5 4 4 4 4 4 5 5 6 6 6 6 6 6 6 6 5 5 5 5 3 3 4 5 6 6
3 4 4 4 4 4 4 4 5 5 5 5 5 5 6 6 6 6 7 6 7 6 5 5 5 4 4 3 2 2 4 5
2 3 3 3 3 3 3 3 4 4 5 5 6 6 6 6 6 6 7 7 7 6 5 5 4 4 4 3 2 1 2 3
2 3 3 3 3 3 3 3 4 4 5 5 6 6 6 6 6 6 6 6 6 6 6 5 4 4 4 2 2 1 3 2
2 2 3 2 2 2 3 3 3 4 4 5 6 6 6 6 6 6 6 5 5 5 5 4 4 3 3 3 2 3 4 4
1 0 1 2 2 2 2 2 3 4 4 5 5 5 5 5 5 6 5 5 4 4 4 4 3 3 2 2 2 2 4 3
0 1 1 2 2 2 2 3 3 3 4 4 5 5 5 5 5 5 5 5 5 4 3 2 2 2 2 1 1 2 2 2

GFSFLT2_700_temp_117.txt.gz
Temp
10 10 10 11 10 10 10 10 10 10 10 10 10 10 10 9 9 9 9 9 9 8 8 8 8 7 7 6 6 6 6 6
10 10 10 10 10 10 10 10 10 10 10 10 10 10 9 9 9 9 9 9 9 8 8 8 8 8 7 7 6 6 6 6
9 9 9 9 9 10 10 10 9 10 10 10 9 9 9 9 9 9 9 9 9 8 8 8 8 8 7 7 7 6 6 6
9 9 9 9 9 9 9 9 9 9 9 9 9 9 9 9 9 9 9 8 9 8 8 8 8 8 8 7 7 6 6 6
9 9 9 9 9 9 9 9 9 9 9 8 8 9 9 9 9 9 9 8 8 8 8 8 8 8 7 7 7 7 6 6
8 8 9 9 9 9 9 9 9 8 8 8 8 8 8 8 9 8 8 8 8 8 8 8 8 8 7 7 7 7 7 6
7 8 7 8 8 8 8 8 8 8 8 7 7 7 8 8 8 8 8 8 8 8 8 8 8 8 8 7 7 7 7 7
6 7 8 8 8 8 8 7 7 8 7 7 7 7 7 7 7 7 7 7 7 7 7 7 7 7 7 7 7 7 7 7
6 6 6 6 7 7 7 7 6 6 7 7 7 6 6 7 6 7 7 7 7 6 7 7 7 7 7 7 7 7 7 7
6 6 6 6 6 6 6 6 6 6 5 6 6 6 7 7 7 7 7 7 6 6 5 6 7 7 7 7 7 7 7 7
5 6 6 5 5 5 5 5 5 5 5 5 5 5 5 6 6 7 6 6 6 5 4 5 6 6 6 6 6 7 7 7
5 5 5 5 5 5 5 4 4 4 5 5 5 5 5 5 5 5 6 6 5 5 4 4 4 4 4 5 5 5 6 6
4 5 5 5 5 5 4 4 4 4 4 5 5 5 5 5 5 5 5 5 5 5 5 5 4 4 3 3 3 4 4 4
3 4 4 4 4 4 4 4 4 4 4 4 5 5 5 5 5 5 5 5 6 6 5 5 5 5 5 4 4 3 2 2
2 3 3 4 4 4 4 4 4 4 4 4 4 4 5 5 5 5 6 6 6 6 6 5 5 5 5 4 4 4 4 3
1 2 3 3 3 4 4 3 3 3 4 4 4 4 4 5 5 6 6 6 6 6 5 5 5 5 5 4 4 4 3 3
0 2 2 3 3 3 3 3 3 3 3 4 4 4 4 5 5 6 6 6 6 6 6 6 5 5 4 4 4 4 3 3
-1 1 2 2 3 2 3 2 3 3 3 4 4 4 4 4 5 5 6 6 6 6 6 6 6 5 4 3 3 3 4 3
-1 1 1 1 2 2 2 2 3 3 3 4 4 4 4 4 5 5 5 5 6 6 6 5 5 5 5 4 3 3 2 2
-1 -1 -0 1 1 1 2 2 3 3 4 4 4 4 5 4 4 5 4 4 5 5 5 5 5 5 5 3 2 2 2 2

GFSFLT2_700_temp_123.txt.gz
Temp
9 9 9 9 9 9 9 9 9 8 8 8 8 8 8 9 9 9 9 9 9 9 8 8 8 8 8 7 7 7 7 6
8 8 8 9 9 9 9 9 9 9 8 8 8 8 8 8 9 9 9 9 9 8 8 8 8 8 8 8 7 7 7 6
8 8 8 8 8 8 8 8 9 9 9 8 8 8 8 8 8 8 8 9 9 8 8 8 8 8 8 7 7 7 7 7
8 8 7 7 8 8 8 8 8 8 8 8 8 7 8 8 8 8 8 8 8 8 8 8 8 8 8 8 7 7 7 7
8 8 8 8 8 7 7 7 7 7 7 7 8 8 7 7 7 7 7 8 8 8 8 8 8 7 7 7 7 7 7 7
7 7 7 7 8 8 8 7 7 7 7 7 7 7 7 7 7 7 7 7 7 7 7 8 7 7 7 7 7 7 7 7
8 7 7 7 6 6 7 7 6 7 6 6 6 7 7 7 7 6 6 6 6 7 7 7 7 7 7 7 7 7 7 7
7 7 7 7 6 6 6 6 6 6 6 6 6 6 6 6 6 6 6 6 6 6 6 6 7 7 7 6 6 7 7 7
7 6 5 6 6 6 5 5 5 6 5 5 5 6 6 5 5 6 6 6 6 6 6 6 7 7 7 7 6 6 6 6
6 5 5 5 5 5 6 5 4 5 5 5 5 5 5 5 5 5 5 5 5 5 5 6 6 6 6 6 6 6 6 6
6 5 5 5 5 5 5 5 4 4 5 5 4 4 4 4 4 5 5 5 4 5 5 5 5 5 5 5 5 5 5 4
6 4 3 3 4 4 4 4 4 4 4 4 4 4 4 4 5 4 5 5 4 4 4 5 4 4 4 4 4 4 4 4
4 4 2 2 2 3 3 4 4 4 4 4 4 4 4 4 4 5 4 5 5 4 4 4 4 4 4 3 2 2 2 3
2 2 1 0 1 2 2 3 3 3 3 3 3 4 4 4 4 4 4 4 4 4 4 4 4 3 4 4 4 3 3 5
0 -1 -1 -0 1 1 1 1 2 2 2 3 3 4 4 4 4 4 4 4 4 5 4 4 5 4 4 4 4 5 5 5
-3 -2 -2 -1 -0 0 -0 0 1 2 2 3 3 3 3 3 3 3 4 4 4 4 5 5 5 5 4 4 4 4 4 5
-2 -2 -1 -1 -1 -1 -1 -1 -1 1 2 2 3 2 3 3 3 3 3 4 4 4 4 5 5 5 5 5 5 5 5 4
-3 -2 -2 -2 -1 -1 -1 -1 -2 -1 0 1 1 2 2 3 3 3 3 3 4 4 4 4 5 5 5 5 5 5 5 5
-3 -3 -3 -2 -2 -2 -2 -3 -4 -3 -1 -0 1 2 2 3 3 3 3 3 3 3 4 4 4 4 5 5 5 5 5 5
-4 -5 -5 -4 -4 -4 -4 -4 -4 -2 -1 0 1 2 2 2 3 3 2 3 3 3 4 4 4 4 4 4 4 4 5 5

GFSFLT2_700_temp_126.txt.gz
Temp
9 9 9 9 8 8 8 8 9 8 8 8 8 8 8 8 8 9 8 8 8 8 8 8 8 8 8 8 7 7 7 7
9 9 9 8 8 8 8 8 8 8 8 8 8 7 7 8 8 8 9 8 8 8 8 8 8 8 8 8 8 7 7 7
9 9 9 9 8 8 8 8 8 8 8 8 8 8 7 7 7 8 8 8 8 8 8 8 8 8 8 8 8 7 7 7
9 9 9 9 9 8 8 8 8 7 7 7 7 7 7 7 7 7 7 7 8 8 8 8 8 8 8 8 8 7 7 7
9 8 8 8 8 8 8 8 8 8 8 7 7 7 7 6 6 6 7 7 7 7 7 7 7 7 7 7 7 7 7 7
8 8 8 8 8 7 8 8 7 7 7 7 7 7 7 6 6 6 6 6 7 7 7 7 7 7 7 7 7 7 7 7
7 7 7 7 7 7 7 7 7 7 7 6 6 6 6 6 7 6 6 6 6 6 6 6 6 6 6 6 7 7 7 7
8 8 8 7 7 6 6 6 6 6 6 6 5 5 6 6 6 6 6 6 6 6 6 6 6 6 6 6 6 6 6 6
8 8 7 6 6 6 5 6 6 6 6 6 5 5 5 5 5 5 5 5 5 5 5 5 5 6 6 6 6 6 6 6
7 7 7 6 5 5 5 5 5 5 5 5 5 4 4 4 4 4 5 5 5 5 5 5 5 5 6 6 6 6 6 6
6 6 5 5 5 5 5 5 5 5 5 5 4 4 4 4 4 4 4 4 5 5 5 5 5 5 5 5 5 6 5 5
5 5 5 4 4 4 4 5 4 4 4 4 4 4 4 4 4 4 4 4 5 5 5 5 4 5 5 5 5 5 5 4
4 4 3 3 3 3 3 3 3 3 3 4 3 3 3 4 4 4 4 4 4 4 5 5 5 5 4 4 4 3 3 4
3 3 3 2 -0 0 1 1 2 2 2 3 3 3 3 3 4 4 4 4 4 4 4 4 4 4 4 4 4 5 5 4
2 2 1 -1 -2 -1 0 0 0 1 1 1 2 2 3 3 4 4 3 3 3 3 3 4 4 4 4 3 4 4 5 5
-1 -1 -2 -2 -2 -2 -1 -1 -1 0 0 0 1 2 2 3 3 3 3 3 3 3 3 3 3 4 4 3 3 3 4 4
-2 -3 -3 -2 -2 -2 -1 -2 -1 -1 -0 0 1 1 1 2 2 2 2 2 3 3 3 3 3 3 3 4 3 3 4 3
-3 -3 -3 -3 -2 -2 -2 -2 -2 -2 -2 -1 -1 -0 1 1 1 2 2 2 2 3 3 3 2 3 3 3 3 3 3 3
-3 -3 -3 -3 -3 -3 -3 -3 -2 -2 -2 -2 -2 -2 -1 0 1 1 2 2 2 3 3 3 2 3 3 3 3 3 3 3
-4 -3 -4 -4 -4 -4 -5 -5 -4 -3 -3 -3 -3 -3 -3 -2 -0 1 2 2 2 2 2 3 2 2 3 3 3 3 3 3

GFSFLT2_700_temp_132.txt.gz
Temp
10 10 10 10 10 9 9 9 8 8 8 8 8 7 7 7 7 7 7 8 8 8 8 8 8 8 8 8 8 7 7 6
9 9 9 10 9 9 9 9 9 9 9 8 8 8 7 7 6 6 7 7 7 7 7 8 8 8 8 8 8 8 7 7
9 9 9 9 9 9 9 8 9 9 9 8 8 8 8 8 8 7 6 6 6 7 7 7 7 8 8 8 8 8 7 7
10 10 9 9 9 9 9 8 8 8 8 8 8 8 8 8 8 7 7 7 6 6 6 7 7 8 8 8 8 7 7 7
9 9 8 8 8 8 8 8 8 8 8 8 8 8 7 7 7 7 7 6 6 6 6 6 7 7 7 7 7 8 8 8
9 8 8 8 8 8 8 7 7 8 8 8 7 7 7 7 6 6 7 6 6 6 6 6 6 6 7 7 7 7 8 8
8 8 8 8 8 8 8 7 7 7 7 7 7 7 6 6 6 6 6 6 6 6 6 6 6 6 6 6 6 7 7 7
8 8 8 8 8 8 7 7 7 6 6 7 7 6 6 6 6 6 6 6 7 6 6 5 6 6 6 6 6 6 6 6
8 8 8 8 8 7 7 7 7 7 6 6 6 6 5 5 5 5 5 6 6 6 6 5 5 5 6 5 5 5 5 5
7 7 7 7 7 7 7 7 6 6 5 5 5 5 5 5 5 5 5 5 5 5 5 5 5 5 5 5 5 6 5 4
6 6 6 7 7 7 6 6 6 6 6 5 4 4 4 4 4 4 4 4 4 4 4 5 5 5 5 5 5 4 4 4
5 4 5 5 5 6 6 6 6 6 5 4 3 3 4 4 4 3 3 4 4 4 4 4 4 4 4 5 5 5 5 5
5 5 5 5 5 5 5 5 5 4 4 4 2 2 3 2 3 3 3 3 3 3 4 4 4 4 4 5 5 5 5 5
4 4 4 4 4 4 4 3 4 3 3 3 2 1 1 1 1 2 2 2 2 3 3 3 3 4 4 4 4 5 4 5
4 4 4 3 3 2 2 2 2 2 2 2 1 1 1 1 1 1 1 2 2 2 3 3 3 3 3 3 3 3 4 4
3 3 3 3 2 1 1 2 1 1 1 -0 -0 -0 -0 -0 0 0 0 1 1 2 2 3 3 3 3 3 3 3 3 4
2 2 2 2 1 1 1 0 -0 -0 -1 -1 -1 -1 -1 -1 -2 -1 -0 -0 0 1 2 2 2 2 2 3 3 3 2 2
1 1 1 1 1 1 0 -0 -1 -1 -1 -1 -1 -1 -1 -1 -2 -2 -1 -1 -1 -0 1 1 1 2 2 3 3 3 3 2
1 0 0 0 0 -0 -0 -1 -1 -1 -2 -2 -2 -2 -2 -2 -2 -2 -2 -2 -1 -1 -0 0 1 1 2 2 3 2 2 2
0 -0 -1 -1 -1 -1 -1 -1 -1 -2 -2 -2 -2 -3 -3 -3 -3 -2 -2 -2 -1 -1 -1 -1 -1 -0 1 2 2 2 2 2

GFSFLT2_700_temp_138.txt.gz
Temp
10 10 10 10 10 10 10 10 9 9 9 9 9 9 9 8 9 8 8 7 7 7 7 7 7 7 8 8 7 7 7 7
10 10 10 10 10 9 9 10 10 10 9 8 8 8 8 8 8 8 8 8 8 7 7 7 7 7 7 7 7 7 6 6
9 9 9 9 9 9 9 9 8 8 8 9 9 8 8 8 8 8 8 8 8 8 8 7 7 7 7 7 6 6 6 6
9 9 9 8 8 8 8 9 8 8 8 8 8 8 8 8 8 8 7 8 8 8 8 7 7 7 6 6 6 6 6 6
8 8 8 8 8 8 8 8 8 8 8 8 7 7 7 7 7 7 7 7 7 7 7 7 7 7 6 6 6 6 6 6
8 8 8 8 8 8 8 8 8 8 8 7 7 7 7 7 7 6 7 6 7 7 7 6 6 6 6 7 6 6 6 6
8 8 8 8 8 8 7 7 7 7 7 7 7 7 7 6 7 7 6 6 6 6 6 6 6 6 6 6 6 6 6 6
7 7 7 7 7 7 7 7 7 7 7 7 6 6 6 6 6 6 6 6 6 6 6 6 6 6 6 5 5 5 5 5
7 7 7 7 7 7 7 7 7 7 7 7 6 6 6 6 6 6 6 5 5 5 5 5 5 5 5 5 5 5 5 5
6 7 7 7 7 7 7 7 7 7 6 6 6 6 5 5 5 5 5 5 5 4 4 4 4 4 4 4 4 4 4 4
6 6 6 6 6 6 6 6 6 6 6 6 6 5 5 5 4 4 4 4 5 5 3 3 4 4 4 4 4 4 3 4
6 6 6 6 5 5 5 6 5 5 6 5 5 5 5 5 4 4 3 2 3 3 4 3 3 3 3 3 3 3 3 3
5 5 5 5 5 5 5 5 5 5 5 5 5 5 5 4 4 4 3 2 2 2 1 2 3 2 2 2 3 3 3 3
4 5 4 4 4 4 4 4 4 4 4 4 4 4 4 4 4 3 3 2 2 1 0 -1 0 1 1 1 2 2 2 3
5 4 4 3 3 3 3 3 3 3 3 4 4 3 3 3 3 3 2 2 1 0 -0 -0 -1 -1 -0 1 1 1 2 3
4 4 3 3 2 2 2 2 2 2 2 3 3 3 3 3 3 2 2 1 1 0 -0 -0 -0 -1 -1 -1 0 0 1 2
3 3 2 2 1 1 1 1 1 1 1 2 2 2 2 2 2 2 1 1 0 -0 -1 -1 -1 -1 -1 -1 -1 -0 -0 1
3 2 1 1 1 1 1 1 1 1 0 0 1 1 1 1 1 1 1 0 -0 -0 -1 -1 -2 -2 -2 -1 -1 -1 -1 0
2 1 1 1 0 0 0 0 -0 -0 -0 -0 0 0 1 0 0 0 -0 -1 -1 -1 -2 -2 -2 -3 -3 -2 -2 -1 -1 -1
2 1 1 -0 -0 -1 -1 -1 -1 -1 -1 -1 -0 -0 -0 -1 -1 -1 -1 -2 -2 -2 -2 -3 -3 -3 -3 -3 -2 -1 -1 -1